CDT,Max TemperatureF,Mean TemperatureF,Min TemperatureF,Max Dew PointF,MeanDew PointF,Min DewpointF,Max Humidity, Mean Humidity, Min Humidity, Max Sea Level PressureIn, Mean Sea Level PressureIn, Min Sea Level PressureIn, Max VisibilityMiles, Mean VisibilityMiles, Min VisibilityMiles, Max Wind SpeedMPH, Mean Wind SpeedMPH, Max Gust SpeedMPH,PrecipitationIn, CloudCover, Events, WindDirDegrees
2013-3-1,30,27,23,23,21,17,81,78,74,30.32,30.20,30.11,10,7,2,14,10,17,0.01,8,Snow,349
2013-3-2,31,20,9,18,14,7,92,73,53,30.36,30.31,30.26,10,10,9,14,6,18,0.00,3,,319
2013-3-3,30,19,8,23,17,7,92,78,63,30.24,30.08,29.95,10,9,4,16,8,21,0.02,7,Rain,125
2013-3-4,38,33,28,29,26,23,85,75,64,29.95,29.87,29.78,10,10,8,16,11,24,T,3,,91
2013-3-5,32,30,27,30,24,19,100,82,63,30.28,30.04,29.90,10,4,0,26,15,39,0.12,8,Fog-Snow,306
2013-3-6,33,25,17,21,18,14,84,68,51,30.44,30.38,30.24,10,10,9,18,8,23,0.00,4,,350
2013-3-7,34,23,11,23,18,12,96,79,61,30.43,30.37,30.32,10,6,2,13,7,16,0.00,0,,103
2013-3-8,40,32,24,31,27,21,92,78,64,30.37,30.29,30.14,10,7,2,16,10,20,0.02,2,Rain,120
2013-3-9,47,42,36,45,36,32,100,88,76,30.13,29.91,29.73,10,5,0,18,11,22,1.78,8,Fog-Rain-Thunderstorm,133
2013-3-10,48,40,32,48,41,32,100,100,100,29.76,29.66,29.59,10,2,0,22,8,25,0.68,8,Fog-Rain,235
2013-3-11,32,28,24,34,27,20,100,85,69,30.01,29.82,29.69,10,8,2,16,12,20,T,7,Snow,280
2013-3-12,38,29,19,26,22,17,92,76,59,30.29,30.15,29.98,10,8,1,26,12,33,T,5,Snow,288
2013-3-13,40,30,20,21,16,14,81,58,34,30.49,30.40,30.24,10,10,10,20,7,28,0.00,1,,305
2013-3-14,59,42,25,37,28,19,89,65,40,30.38,30.19,30.09,10,10,10,16,6,21,T,2,,191
2013-3-15,72,50,27,51,39,26,92,68,44,30.09,29.86,29.68,10,8,3,16,5,22,0.00,0,,122
2013-3-16,43,37,30,40,31,25,92,78,64,30.15,29.99,29.72,10,7,3,22,12,29,0.00,5,,356
2013-3-17,38,33,27,30,26,21,89,77,64,30.15,30.01,29.84,10,8,2,20,12,26,0.01,8,Snow,74
2013-3-18,47,37,26,35,29,16,100,70,40,30.05,29.82,29.74,10,6,1,30,13,43,0.02,6,,313
2013-3-19,44,34,24,25,13,7,69,47,24,30.24,30.18,30.05,10,10,10,16,9,23,0.00,0,,281
2013-3-20,32,24,15,19,11,5,75,54,32,30.36,30.27,30.19,10,9,5,22,11,29,T,3,Snow,322
2013-3-21,36,24,11,16,12,7,84,62,40,30.16,30.09,30.01,10,10,10,10,5,14,0.00,2,,63
2013-3-22,37,29,20,24,19,15,84,66,47,30.08,30.05,30.02,10,10,8,12,5,14,0.00,6,,64
2013-3-23,46,39,31,32,27,22,100,71,41,30.10,30.02,29.94,10,7,1,20,10,25,0.17,8,Rain-Snow,41
2013-3-24,32,30,28,31,27,25,92,89,85,29.96,29.86,29.79,4,1,0,24,15,30,0.33,8,Fog-Snow,351
2013-3-25,33,30,27,27,24,19,92,77,61,30.28,30.02,29.92,10,5,1,20,11,25,0.04,8,Snow,314
2013-3-26,37,29,21,21,20,18,92,72,52,30.39,30.35,30.29,10,10,10,14,7,17,0.00,2,,295
2013-3-27,45,32,18,30,23,17,92,73,53,30.41,30.36,30.31,10,8,0,10,4,15,0.00,2,Fog,155
2013-3-28,55,45,34,37,32,26,75,61,47,30.34,30.30,30.23,10,10,10,16,9,22,0.00,3,,103
2013-3-29,62,47,31,39,33,27,85,61,36,30.29,30.24,30.19,10,10,8,13,7,16,0.00,0,,83
2013-3-30,50,44,37,48,44,36,100,87,74,30.17,30.01,29.91,10,4,0,18,9,26,0.14,5,Fog-Rain,176
2013-3-31,61,49,37,48,41,24,100,64,28,30.04,29.93,29.89,10,5,0,22,10,30,T,4,Fog,291